When you browse on this site, cookies collect data to enhance your experience and personalize the content and advertising you see.
Visit our Privacy Policy to learn more. By continuing to use the site, you agree to this use of cookies and data.
  • In United States
  • List of Countries
  • For 7 days
  • Water Temperature
  • Satellite Maps
  • Weather Map
  • Weather Widgets
  • user-avatar
    Login

    Hourly Weather Oran

    Today, 13 December, Thursday

    Time Temperature Precipitation Wind Pressure Humidity
    00:00 +13°C° 0 mm 6 mps 753 mmHg 83%
    01:00 +13°C° 0 mm 6 mps 753 mmHg 83%
    02:00 +13°C° 0 mm 6 mps 753 mmHg 84%
    03:00 +12°C° 0 mm 7 mps 752 mmHg 84%
    04:00 +12°C° 0 mm 7 mps 752 mmHg 84%
    05:00 +12°C° 0 mm 8 mps 752 mmHg 84%
    06:00 +12°C° 0 mm 8 mps 752 mmHg 83%
    07:00 +12°C° 0 mm 8 mps 752 mmHg 79%
    08:00 +13°C° 0 mm 8 mps 751 mmHg 75%
    09:00 +15°C° 0 mm 9 mps 751 mmHg 71%
    10:00 +16°C° 0 mm 9 mps 750 mmHg 62%
    11:00 +17°C° 0 mm 8 mps 750 mmHg 53%
    12:00 +20°C° 0 mm 8 mps 748 mmHg 42%
    13:00 +19°C° 0.4 mm 10 mps 748 mmHg 45%
    14:00 +19°C° 0.4 mm 12 mps 748 mmHg 48%
    15:00 +19°C° 0.4 mm 14 mps 747 mmHg 51%
    16:00 +18°C° 0.9 mm 14 mps 748 mmHg 55%
    17:00 +15°C° 0.9 mm 15 mps 748 mmHg 59%
    18:00 +13°C° 0.9 mm 15 mps 749 mmHg 63%
    19:00 +13°C° 0.2 mm 15 mps 749 mmHg 62%
    20:00 +13°C° 0.2 mm 14 mps 750 mmHg 61%
    21:00 +12°C° 0.2 mm 14 mps 750 mmHg 60%
    22:00 +12°C° 0.5 mm 14 mps 750 mmHg 61%
    23:00 +12°C° 0.5 mm 14 mps 751 mmHg 62%

    Tomorrow, 14 December, Friday

    Time Temperature Precipitation Wind Pressure Humidity
    00:00 +12°C° 0.5 mm 14 mps 751 mmHg 63%
    01:00 +11°C° 0.2 mm 15 mps 751 mmHg 63%
    02:00 +11°C° 0.2 mm 15 mps 751 mmHg 63%
    03:00 +11°C° 0.2 mm 15 mps 751 mmHg 64%
    04:00 +12°C° 0.1 mm 14 mps 751 mmHg 64%
    05:00 +12°C° 0.1 mm 14 mps 752 mmHg 64%
    06:00 +10°C° 0.1 mm 13 mps 752 mmHg 64%
    07:00 +12°C° 0 mm 12 mps 753 mmHg 63%
    08:00 +12°C° 0 mm 12 mps 753 mmHg 62%
    09:00 +13°C° 0 mm 11 mps 754 mmHg 61%
    10:00 +13°C° 0 mm 10 mps 755 mmHg 59%
    11:00 +14°C° 0 mm 10 mps 755 mmHg 56%
    12:00 +15°C° 0 mm 9 mps 755 mmHg 54%
    13:00 +15°C° 0 mm 8 mps 756 mmHg 54%
    14:00 +15°C° 0 mm 8 mps 756 mmHg 55%
    15:00 +15°C° 0 mm 7 mps 756 mmHg 56%
    16:00 +14°C° 0 mm 6 mps 756 mmHg 60%
    17:00 +13°C° 0 mm 6 mps 757 mmHg 64%
    18:00 +12°C° 0 mm 5 mps 757 mmHg 67%
    19:00 +12°C° 0 mm 5 mps 758 mmHg 70%
    20:00 +12°C° 0 mm 5 mps 758 mmHg 72%
    21:00 +12°C° 0 mm 5 mps 758 mmHg 74%
    22:00 +12°C° 0 mm 5 mps 758 mmHg 75%
    23:00 +12°C° 0 mm 5 mps 759 mmHg 77%

    Day after tomorrow, 15 December, Saturday

    Time Temperature Precipitation Wind Pressure Humidity
    00:00 +10°C° 0 mm 5 mps 759 mmHg 78%
    01:00 +10°C° 0 mm 5 mps 759 mmHg 78%
    02:00 +10°C° 0 mm 5 mps 759 mmHg 79%
    03:00 +10°C° 0 mm 5 mps 759 mmHg 80%
    04:00 +10°C° 0 mm 6 mps 759 mmHg 79%
    05:00 +9°C° 0 mm 6 mps 759 mmHg 78%
    06:00 +9°C° 0 mm 6 mps 759 mmHg 77%
    07:00 +10°C° 0 mm 6 mps 759 mmHg 72%
    08:00 +11°C° 0 mm 6 mps 760 mmHg 66%
    09:00 +13°C° 0 mm 6 mps 760 mmHg 61%
    10:00 +14°C° 0 mm 5 mps 760 mmHg 54%
    11:00 +15°C° 0 mm 5 mps 760 mmHg 48%
    12:00 +16°C° 0 mm 5 mps 759 mmHg 42%
    13:00 +17°C° 0 mm 5 mps 759 mmHg 39%
    14:00 +18°C° 0 mm 4 mps 759 mmHg 37%
    15:00 +18°C° 0 mm 4 mps 758 mmHg 34%
    16:00 +17°C° 0 mm 3 mps 758 mmHg 40%
    17:00 +14°C° 0 mm 3 mps 759 mmHg 45%
    18:00 +14°C° 0 mm 2 mps 759 mmHg 51%
    19:00 +14°C° 0 mm 2 mps 759 mmHg 49%
    20:00 +14°C° 0 mm 2 mps 759 mmHg 46%
    21:00 +14°C° 0 mm 2 mps 759 mmHg 44%
    22:00 +14°C° 0 mm 2 mps 759 mmHg 42%
    23:00 +14°C° 0 mm 2 mps 758 mmHg 40%

    16 December, Sunday

    Time Temperature Precipitation Wind Pressure Humidity
    00:00 +13°C° 0 mm 2 mps 758 mmHg 39%
    01:00 +13°C° 0 mm 2 mps 758 mmHg 38%
    02:00 +13°C° 0 mm 2 mps 757 mmHg 37%
    03:00 +12°C° 0 mm 3 mps 757 mmHg 36%
    04:00 +12°C° 0 mm 3 mps 757 mmHg 36%
    05:00 +12°C° 0 mm 3 mps 757 mmHg 35%
    06:00 +12°C° 0 mm 3 mps 757 mmHg 35%
    07:00 +14°C° 0 mm 3 mps 757 mmHg 34%
    08:00 +16°C° 0 mm 3 mps 757 mmHg 32%
    09:00 +18°C° 0 mm 4 mps 757 mmHg 31%
    10:00 +19°C° 0 mm 4 mps 757 mmHg 29%
    11:00 +21°C° 0 mm 4 mps 757 mmHg 26%
    12:00 +22°C° 0 mm 5 mps 757 mmHg 24%
    13:00 +22°C° 0 mm 5 mps 756 mmHg 28%
    14:00 +22°C° 0 mm 5 mps 756 mmHg 31%
    15:00 +21°C° 0 mm 6 mps 756 mmHg 35%
    16:00 +20°C° 0 mm 5 mps 756 mmHg 42%
    17:00 +17°C° 0 mm 5 mps 756 mmHg 49%
    18:00 +17°C° 0 mm 4 mps 757 mmHg 56%
    19:00 +15°C° 0 mm 4 mps 757 mmHg 55%
    20:00 +15°C° 0 mm 4 mps 757 mmHg 55%
    21:00 +15°C° 0 mm 4 mps 758 mmHg 55%
    22:00 +15°C° 0 mm 5 mps 758 mmHg 54%
    23:00 +15°C° 0 mm 5 mps 758 mmHg 54%

    17 December, Monday

    Time Temperature Precipitation Wind Pressure Humidity
    00:00 +15°C° 0 mm 5 mps 758 mmHg 53%
    01:00 +14°C° 0 mm 5 mps 758 mmHg 56%
    02:00 +14°C° 0 mm 5 mps 758 mmHg 58%
    03:00 +14°C° 0 mm 4 mps 758 mmHg 61%
    04:00 +14°C° 0 mm 4 mps 758 mmHg 65%
    05:00 +13°C° 0 mm 4 mps 758 mmHg 68%
    06:00 +13°C° 0 mm 4 mps 758 mmHg 72%
    07:00 +14°C° 0 mm 4 mps 758 mmHg 71%
    08:00 +16°C° 0 mm 3 mps 759 mmHg 70%
    09:00 +17°C° 0 mm 3 mps 759 mmHg 69%
    10:00 +18°C° 0 mm 3 mps 759 mmHg 67%
    11:00 +19°C° 0 mm 3 mps 759 mmHg 65%
    12:00 +19°C° 0 mm 3 mps 759 mmHg 64%
    13:00 +19°C° 0 mm 3 mps 759 mmHg 65%
    14:00 +19°C° 0 mm 3 mps 759 mmHg 66%
    15:00 +19°C° 0 mm 4 mps 759 mmHg 67%
    16:00 +18°C° 0 mm 3 mps 759 mmHg 74%
    17:00 +16°C° 0 mm 3 mps 759 mmHg 80%
    18:00 +15°C° 0 mm 2 mps 760 mmHg 87%
    19:00 +15°C° 0 mm 2 mps 760 mmHg 88%
    20:00 +15°C° 0 mm 2 mps 760 mmHg 89%
    21:00 +14°C° 0 mm 2 mps 761 mmHg 91%
    22:00 +14°C° 0 mm 2 mps 761 mmHg 90%
    23:00 +14°C° 0 mm 2 mps 761 mmHg 90%

    18 December, Tuesday

    Time Temperature Precipitation Wind Pressure Humidity
    00:00 +14°C° 0 mm 2 mps 760 mmHg 90%
    01:00 +14°C° 0 mm 2 mps 760 mmHg 89%
    02:00 +13°C° 0 mm 2 mps 760 mmHg 88%
    03:00 +12°C° 0 mm 3 mps 760 mmHg 88%
    04:00 +12°C° 0 mm 3 mps 759 mmHg 86%
    05:00 +12°C° 0 mm 3 mps 759 mmHg 85%
    06:00 +12°C° 0 mm 3 mps 759 mmHg 84%
    07:00 +14°C° 0 mm 2 mps 759 mmHg 76%
    08:00 +15°C° 0 mm 2 mps 760 mmHg 69%
    09:00 +17°C° 0 mm 2 mps 760 mmHg 62%
    10:00 +18°C° 0 mm 2 mps 759 mmHg 54%
    11:00 +21°C° 0 mm 1 mps 759 mmHg 46%
    12:00 +22°C° 0 mm 1 mps 759 mmHg 38%
    13:00 +21°C° 0 mm 2 mps 758 mmHg 40%
    14:00 +21°C° 0 mm 2 mps 758 mmHg 41%
    15:00 +21°C° 0 mm 3 mps 757 mmHg 42%
    16:00 +19°C° 0 mm 2 mps 757 mmHg 51%
    17:00 +18°C° 0 mm 2 mps 757 mmHg 59%
    18:00 +16°C° 0 mm 1 mps 758 mmHg 68%
    19:00 +16°C° 0 mm 1 mps 758 mmHg 66%
    20:00 +16°C° 0 mm 1 mps 758 mmHg 64%
    21:00 +15°C° 0 mm 1 mps 758 mmHg 63%
    22:00 +15°C° 0 mm 1 mps 758 mmHg 63%
    23:00 +15°C° 0 mm 1 mps 757 mmHg 63%
    Show more